Flag for Germany Weather past 2 weeks in Herzogenrath, North Rhine-Westphalia, Germany

Now
46 °F

Sunny.


Feels Like: 43 °F
Forecast: 38 / 64 °F
Wind: 7 mph from Southeast

Location: Geilenkirchen Airport


UV Index: 3 (Moderate)

Visibility: 10 mi


Pressure: 30.45 "Hg

Humidity: 66%

Dew point: 36 °F

Location of HerzogenrathLocation

Historic Weather in Herzogenrath

°F

Herzogenrath temperature yesterday

Maximum temperature yesterday: 52 °F (at 4:50 PM)
Minimum temperature yesterday: 37 °F (at 4:50 AM)
Average temperature yesterday: 44 °F

Past Weeks' High & Low Weather Summary

 TemperatureHumidityPressure
High73 °F (Apr 2, 5:50 PM)100% (Apr 7, 11:50 PM)30.45 "Hg (Apr 7, 11:50 PM)
Low30 °F (Apr 16, 5:50 AM)36% (Apr 1, 5:50 PM)29.62 "Hg (Apr 3, 2:50 AM)
Average54 °F70%30.02 "Hg
* Reported Apr 1 9:50 AM — Apr 16 9:50 AM, Herzogenrath, Weather by CustomWeather, © 2014

Note: Actual official high and low records may vary slightly from our data, if they occured in-between our weather recording intervals... More about our weather records

Advertising

Historic Weather Conditions — Data for Previous 24 hours

 ConditionsComfort  
Time TempWeatherWind HumidityBarometerVisibility
9:50 AM
Apr 16
46 °FSunny.7 mph66%30.45 "Hg10 mi
8:50 AM41 °FSunny.5 mph87%30.45 "Hg10 mi
7:50 AM34 °FSunny.No wind93%30.42 "Hg10 mi
6:50 AM30 °FFog.No wind93%30.42 "HgN/A
5:50 AM30 °FClear.No wind93%30.39 "Hg10 mi
4:50 AM32 °FClear.No wind93%30.42 "Hg10 mi
3:50 AM32 °FPassing clouds.No wind93%30.39 "HgN/A
2:50 AM36 °FPassing clouds.No wind87%30.39 "HgN/A
1:50 AM37 °FPassing clouds.3 mph81%30.39 "HgN/A
12:50 AM41 °FPassing clouds.2 mph76%30.39 "HgN/A
11:50 PM
Apr 15
43 °FPassing clouds.3 mph71%30.39 "HgN/A
10:50 PM43 °FPassing clouds.3 mph71%30.39 "HgN/A
9:50 PM45 °FPassing clouds.5 mph66%30.36 "HgN/A
8:50 PM46 °FScattered clouds.6 mph57%30.36 "HgN/A
7:50 PM48 °FScattered clouds.7 mph58%30.33 "HgN/A
6:50 PM50 °FScattered clouds.7 mph54%30.33 "HgN/A
5:50 PM50 °FScattered clouds.10 mph54%30.33 "HgN/A
4:50 PM52 °FPartly sunny.9 mph50%30.33 "HgN/A
3:50 PM50 °FPartly sunny.10 mph54%30.36 "HgN/A
2:50 PM48 °FPartly sunny.12 mph62%30.36 "HgN/A
1:50 PM50 °FPartly sunny.9 mph62%30.36 "HgN/A
12:50 PM48 °FPartly sunny.10 mph62%30.36 "HgN/A
11:50 AM46 °FPartly sunny.12 mph62%30.36 "HgN/A
10:50 AM46 °FPartly sunny.9 mph62%30.36 "HgN/A
Weather by CustomWeather, © 2014

See weather overview